STARLINK-2675, 48470

Orbit data source: Space-Track

STARLINK-2675, 48470 is a payload satellite owned by SpaceX/Seattle (US) in LEO that was launched on Sun, 09 May 2021 UTC via an FALCON 9 launch vehicle from the Air Force Eastern Test Range (AFETR). Payload-class satellites include a variety of spacecraft equipped with specific instruments for various scientific and technological missions. These include communications satellites like Starlink; space stations such as the ISS; scientific satellites like the Hubble; Earth observation satellites from companies like Planet Labs, Umbra, and HawkEye 360; GPS; miniature CubeSats for education and research; and military/defense satellites.

Loading next visibility...
Identifier
48470, 2021-040AU
Orbit
LEO
Country
Flag of USUS
Related business
Manufacturer
SpaceX/Seattle
Mission
Operational Commercial Communications
Bus & Motor
STARLINK, Unknown motor
Mass
260 kg wet, ~248 kg dry
Launch date (UTC)
2021-05-09 (5 years ago)
Launch vehicle
FALCON 9
Launch site
Air Force Eastern Test Range (AFETR)
Object type
Payload
Rocket body
Debris
Shape & HBR
Box + 1 Pan, 10.1 m
Radar Cross Section
13.562 m², Large (>1 m²)

Expand to show TLE details & history
Last TLE update: 3 days ago

TLE from 3 days ago
0 STARLINK-2675
1 48470U 21040AU  26170.93653401  .00005189  00000-0  17872-3 0  9998
2 48470  53.1614  75.3693 0001158  89.5562 270.5572 15.31726171282169
Epoch: 2026-06-19T22:28Z
TLE epoch observation values (Epoch: 2026-06-19T22:28:36.538Z)
Latitude
-0.00003°
Longitude
-169.94132°
Altitude
471.555 km
Speed
7.631 km/s
True Right ascension
05h 01m 28s
True Declination
0° 00' 00"
Sunlit
Object was in daylight at epoch
Visualization orbit readout
Latitude
Unknown
Longitude
Unknown
Altitude
Unknown
Speed
Unknown
Apparent Right ascension
Unknown
Apparent Declination
Unknown
Sunlit
N/A
Visualization observer readout
Local Sidereal Time
00:34:40
Azimuth
Unknown
Elevation
Unknown
Doppler factor
Unknown
Orbital elements
Apogee altitude
471.711 km
Perigee altitude
470.125 km
Semi-major axis
6,849.055 km
Eccentricity
0.00012
Inclination
53.1614°
RAAN
75.3693°
Arg. of periapsis
89.5562°
True anomaly
270.54393°
Mean anomaly
270.5572°
Eccentric anomaly
270.55057°
Mean motion
3.8291 °/min
Orbital period
94.02 mins
BSTAR
0.00017872
Loading maneuver chart data...
Computing Atmospheric mass density...

Documentation

Showing up to 5 results
|